This is the latest recevied weather packets stored in our database for station/object N1SU-13. If no packets are shown the sender has not sent any weather packets the latest 10 day(s).
| Time | Temp. | Humidity | Pressure | Rain* | Wind** | Luminosity | Snow |
|---|---|---|---|---|---|---|---|
| 1788137442 | 21.67° C | 49% | 1016.3 hPa | - | - | - | - |
| 1788136770 | 21.67° C | 49% | 1016.3 hPa | - | - | - | - |
| 1788136201 | 21.11° C | 49% | 1016.5 hPa | - | - | - | - |
| 1788135592 | 20.56° C | 50% | 1016.5 hPa | - | - | - | - |
| 1788135002 | 20.56° C | 50% | 1016.4 hPa | - | - | - | - |
| 1788134362 | 20.56° C | 51% | 1016.7 hPa | - | - | - | - |
| 1788133681 | 21.11° C | 51% | 1016.7 hPa | - | - | - | - |
| 1788133079 | 21.11° C | 50% | 1016.7 hPa | - | - | - | - |
| 1788132426 | 21.11° C | 49% | 1016.7 hPa | - | - | - | - |
| 1788131745 | 21.11° C | 50% | 1016.7 hPa | - | - | - | - |
| 1788131150 | 21.11° C | 50% | 1016.9 hPa | - | - | - | - |
| 1788130533 | 20.56° C | 51% | 1017.1 hPa | - | - | - | - |
| 1788129834 | 20.56° C | 51% | 1017.2 hPa | - | - | - | - |
| 1788129211 | 20° C | 52% | 1017.3 hPa | - | - | - | - |
| 1788128601 | 20° C | 51% | 1017.4 hPa | - | - | - | - |
| 1788127975 | 20.56° C | 52% | 1017.3 hPa | - | - | - | - |
| 1788127394 | 20° C | 55% | 1017.4 hPa | - | - | - | - |
| 1788126778 | 18.89° C | 56% | 1017.6 hPa | - | - | - | - |
| 1788126118 | 18.89° C | 56% | 1017.8 hPa | - | - | - | - |
| 1788125950 | 14.44° C | 73% | 1018 hPa | - | - | - | - |
| 1788125461 | 18.33° C | 57% | 1017.9 hPa | - | - | - | - |
| 1788124856 | 17.78° C | 60% | 1018.1 hPa | - | - | - | - |
| 1788124190 | 17.78° C | 59% | 1018.3 hPa | - | - | - | - |
| 1788123497 | 18.33° C | 57% | 1018.4 hPa | - | - | - | - |
| 1788123014 | 18.33° C | 57% | 1018.3 hPa | - | - | - | - |
* Rain since midnight (hover to see other rain measurements)
** Current wind speed in m/s (hover to see current wind gust speed)